Hourly Data Report for October 15, 2014

All times are specified in Local Standard Time (LST). Add 1 hour to adjust for Daylight Saving Time where and when it is observed.

CHARLOTTETOWN A
PRINCE EDWARD ISLAND

46°17'21.000" N
63°07'09.000" W
48.50 m
8300301
71706
YYG

Download Data

Hourly Data (October 2014)
Hourly Data Report for October 15, 2014
Temp Definition
°C
Dew Point Temp Definition
°C
Rel Hum Definition
%
Wind Dir Definition
10's deg

Wind Spd Definition
km/h
Visibility Definition
km
Stn Press Definition
kPa
Hmdx Definition


Wind Chill Definition


Weather Definition


TIME
00:00 Legend Double Dagger 15.6 14.5 93 24 27 24.1 101.17     LegendNANA
01:00 Legend Double Dagger 16.2 14.8 91 22 23 24.1 101.12     LegendNANA
02:00 Legend Double Dagger 15.8 14.5 92 23 20 24.1 101.09     Mostly Cloudy
03:00 Legend Double Dagger 15.8 14.4 91 22 19 24.1 101.01     LegendNANA
04:00 Legend Double Dagger 15.7 14.1 90 23 21 24.1 100.99     LegendNANA
05:00 Legend Double Dagger 16.3 14.3 88 24 30 24.1 100.96     Mostly Cloudy
06:00 Legend Double Dagger 16.2 14.4 89 25 20 24.1 101.00     LegendNANA
07:00 Legend Double Dagger 16.2 14.2 88 24 23 24.1 101.01     LegendNANA
08:00 Legend Double Dagger 17.1 14.8 86 23 27 24.1 101.01     Mostly Cloudy
09:00 Legend Double Dagger 17.4 15.1 86 24 23 24.1 101.00     LegendNANA
10:00 Legend Double Dagger 18.1 15.2 83 24 31 24.1 100.99     LegendNANA
11:00 Legend Double Dagger 18.0 15.3 84 24 33 24.1 101.02     Mostly Cloudy
12:00 Legend Double Dagger 18.2 15.3 83 24 29 24.1 101.03     LegendNANA
13:00 Legend Double Dagger 18.7 15.4 81 24 22 24.1 101.02     LegendNANA
14:00 Legend Double Dagger 19.1 15.6 80 24 23 24.1 101.06     Mostly Cloudy
15:00 Legend Double Dagger 19.5 16.0 80 25 19 24.1 101.07     LegendNANA
16:00 Legend Double Dagger 19.0 15.9 82 24 14 24.1 101.11     LegendNANA
17:00 Legend Double Dagger 13.5 9.8 78 4 12 24.1 101.24     Cloudy
18:00 Legend Double Dagger 13.1 9.0 76 4 12 24.1 101.29     LegendNANA
19:00 Legend Double Dagger 12.8 8.7 76 3 16 24.1 101.34     LegendNANA
20:00 Legend Double Dagger 12.6 8.7 77 4 14 24.1 101.41     Cloudy
21:00 Legend Double Dagger 12.4 8.5 77 3 14 24.1 101.47     LegendNANA
22:00 Legend Double Dagger 12.3 8.4 77 7 9 24.1 101.49     LegendNANA
23:00 Legend Double Dagger 12.2 8.3 77 6 13 24.1 101.52     Cloudy

Notes on Data Quality.

Legend

  • E = Estimated
  • M = Missing
  • NA = Not Available
  • ‡ = Partner data that is not subject to review by the National Climate Archives
Date modified: